Regional Weather Roundup
Issued by NWS

Home | Current Version | Previous Version | Graphics & Text | Print | Product List | Glossary On
Versions: 1 2 3 4 5 6 7 8 9 10 11 12 13 14 15 16 17 18 19 20 21 22 23 24 25 26 27 28 29 30 31 32 33 34 35 36 37 38 39 40 41 42 43 44 45 46 47 48 49 50
000
ASUS43 KFSD 300610
RWRSD

WEATHER ROUNDUP FOR SOUTH DAKOTA
NATIONAL WEATHER SERVICE SIOUX FALLS SD
100 AM CDT FRI SEP 30 2016

NOTE: "FAIR" INDICATES FEW OR NO CLOUDS BELOW 12,000 FEET WITH NO
SIGNIFICANT WEATHER AND/OR OBSTRUCTIONS TO VISIBILITY.


SDZ001>005-009-010-012>017-300700-
NORTHWEST AND NORTH CENTRAL SOUTH DAKOTA

CITY           SKY/WX    TMP DP  RH WIND       PRES   REMARKS
BUFFALO          N/A     64  42  44 S15       30.04F
FAITH            N/A     56  43  61 SE21      30.17S
MOBRIDGE       CLEAR     58  46  64 S16G22    30.23S
$$

SDZ012>016-024>037-041>051-057-063-072>074-300700-
SOUTHWEST AND SOUTH CENTRAL SOUTH DAKOTA

CITY           SKY/WX    TMP DP  RH WIND       PRES   REMARKS
RAPID CTY ARPT MOCLDY    62  43  49 SE15      30.17F
PIERRE         CLEAR     55  46  71 SE16      30.24F
CUSTER         CLOUDY    58  40  51 SW3       30.28F
ELLSWORTH AFB  MOCLDY    63  43  48 S17       30.16F
PHILIP         CLEAR     56  41  57 E9        30.20S
PINE RIDGE     CLOUDY    61  41  47 S23G35    30.20S
WINNER         FAIR      53  45  74 S9        30.28F
$$

SDZ004>011-016>023-039-040-300700-
NORTHEAST SOUTH DAKOTA

CITY           SKY/WX    TMP DP  RH WIND       PRES   REMARKS
ABERDEEN       CLEAR     47  43  86 SE8       30.32F
WATERTOWN      CLEAR     53  46  77 SE8       30.35S
BROOKINGS      CLEAR     49  46  90 SE9       30.35F
SISSETON         N/A     42  40  92 S5        30.36F
$$

SDZ017-020-022-023-036>040-048>070-300700-
SOUTHEAST SOUTH DAKOTA

CITY           SKY/WX    TMP DP  RH WIND       PRES   REMARKS
SIOUX FALLS    CLEAR     48  45  89 NE3       30.36S
HURON          CLEAR     48  44  86 SE7       30.32F
CHAMBERLAIN    CLEAR     51  48  87 SE8       30.29F
MITCHELL       CLEAR     49  45  86 SE5       30.34S
YANKTON        CLEAR     50  46  87 CALM      30.33S
$$

ABBREVIATIONS USED IN REMARKS
   TC - TEMPERATURE IN CELSIUS
  WCI - WIND CHILL INDEX
   HX - HEAT INDEX
  VSB - VISIBILITY





USA.gov is the U.S. government's official web portal to all federal, state and local government web resources and services.